Regional Weather Roundup
Issued by NWS

Home | Current Version | Previous Version | Text Only | Print | Product List | Glossary Off
Versions: 1 2 3 4 5 6 7 8 9 10 11 12 13 14 15 16 17 18 19 20 21 22 23 24 25 26 27 28 29 30 31 32 33 34 35 36 37 38 39 40 41 42 43 44 45 46 47 48 49 50

190
ASUS43 KFSD 140302
RWRSD

WEATHER ROUNDUP FOR SOUTH DAKOTA
NATIONAL WEATHER SERVICE SIOUX FALLS SD
900 PM CST SAT FEB 13 2016

NOTE: "FAIR" INDICATES FEW OR NO CLOUDS BELOW 12,000 FEET WITH NO
SIGNIFICANT WEATHER AND/OR OBSTRUCTIONS TO VISIBILITY.


SDZ001>005-009-010-012>017-140400-
NORTHWEST AND NORTH CENTRAL SOUTH DAKOTA

CITY           SKY/WX    TMP DP  RH WIND       PRES   REMARKS
BUFFALO          N/A     37  33  85 W20       29.76S
FAITH            N/A     30  27  88 W10       29.84R WCI  21
MOBRIDGE       SNOW      20  16  84 SE14      29.85F VSB 1/2 WCI   7
$$

SDZ012>016-024>037-041>051-057-063-072>074-140400-
SOUTHWEST AND SOUTH CENTRAL SOUTH DAKOTA

CITY           SKY/WX    TMP DP  RH WIND       PRES   REMARKS
RAPID CTY ARPT CLOUDY    38  33  82 NW21      29.83F
PIERRE         LGT SNOW  25  23  92 SE12      29.87F VSB 3/4 WCI  14
CUSTER         CLOUDY    34  22  61 NW16G40   29.85R WCI  24
ELLSWORTH AFB  CLOUDY    38  34  87 NW20      29.83
PHILIP         LGT SNOW  33  31  92 NW9       29.85R FOG     WCI  25
PINE RIDGE     LGT RAIN  38  32  79 N22G37    29.91R
WINNER         CLOUDY    27  19  72 S20G30    29.83F WCI  13
$$

SDZ004>011-016>023-039-040-140400-
NORTHEAST SOUTH DAKOTA

CITY           SKY/WX    TMP DP  RH WIND       PRES   REMARKS
ABERDEEN       CLOUDY    16  10  77 S18       30.06R HAZE    WCI   0
WATERTOWN      LGT SNOW  10   5  80 SE22      30.03F WCI -10
BROOKINGS      LGT SNOW   9   5  84 SE24G32   30.07F FOG     WCI -12
SISSETON         N/A     10   3  73 S21       30.12R WCI  -9
$$

SDZ017-020-022-023-036>040-048>070-140400-
SOUTHEAST SOUTH DAKOTA

CITY           SKY/WX    TMP DP  RH WIND       PRES   REMARKS
SIOUX FALLS    LGT SNOW  12   7  80 SE22G29   30.12F WCI  -7
HURON          CLOUDY    14   8  77 SE24G37   30.01F WCI  -5
MITCHELL       MIX PCPN  14   8  77 SE26G33   30.06R WCI  -6
YANKTON        CLOUDY    16   7  67 SE21G28   30.12F WCI  -2
$$

ABBREVIATIONS USED IN REMARKS
   TC - TEMPERATURE IN CELSIUS
  WCI - WIND CHILL INDEX
   HX - HEAT INDEX
  VSB - VISIBILITY





USA.gov is the U.S. government's official web portal to all federal, state and local government web resources and services.